User: anonymous   Login
Location: Dehesa de la Cepeda
(40.6574°N, 4.3013°W)
Time: 02:16:15
(UTC+00:00)
Language:

Cosmos 1400 Rocket - Orbit

View from above orbital plane
View from above orbital plane
View from above satellite
View from above satellite

Ground track
Ground track

The orbit data is extracted from the following two-line orbital elements,

1 13403U 82079B   20272.57223631 +.00000260 +00000-0 +15583-4 0  9993
2 13403 081.1696 334.8348 0031667 283.8187 075.9514 15.07208490077143
Epoch (UTC): 28 September 2020 13:44:01
Eccentricity: 0.0031667
inclination: 81.1696°
perigee height: 523 km
apogee height: 566 km
right ascension of ascending node: 334.8348°
argument of perigee: 283.8187°
revolutions per day: 15.07208490
mean anomaly at epoch: 75.9514°
orbit number at epoch: 7714

The dashed part of the orbit path shows where the satellite is in the earth's shadow,  

DLR